1499374800.99,52906,17.81,74334.5,1.21,-0.77,-0.03,0,*44
1499374802.18,52907,17.81,74340.0,1.23,-0.73,-0.07,0,*47
1499374803.37,52908,17.81,74342.8,1.23,-0.73,-0.07,0,*48
1499374804.56,52909,17.81,74346.5,1.21,-0.53,0.01,0,*62
1499374805.82,52910,17.81,74334.3,1.21,-0.27,0.21,0,*5B
1499374807.01,52911,17.81,74338.0,1.23,-0.29,0.25,0,*52
1499374808.26,52912,17.81,74336.3,1.25,-0.23,0.29,0,*51
1499374809.46,52913,17.81,74330.3,1.23,-0.33,0.37,0,*58
1499374810.71,52914,17.81,74322.3,1.25,-0.23,0.37,0,*58
1499374811.93,52915,17.81,74332.0,1.23,-0.23,0.17,0,*5D
1499374813.13,52916,17.81,74332.5,1.23,-0.61,0.17,0,*58
1499374814.34,52917,17.81,74330.8,1.25,-0.61,0.17,0,*5F
1499374815.57,52918,17.81,74330.8,1.25,-0.57,0.29,0,*58
1499374816.81,52919,17.81,74330.0,1.25,-0.23,0.41,0,*54
1499374818.03,52920,17.81,74330.0,1.25,-0.29,0.29,0,*5A
1499374819.25,52921,17.81,74334.3,1.25,-0.29,0.17,0,*56
1499374820.47,52922,17.81,74340.0,1.25,-0.29,0.17,0,*55
1499374821.69,52923,17.81,74338.5,1.25,-0.45,0.17,0,*5E
1499374822.91,52924,17.81,74334.0,1.25,-0.33,0.29,0,*55
1499374824.1,52925,17.81,74328.0,1.27,-0.07,0.33,0,*6A
1499374825.3,52926,17.81,74328.5,1.27,-0.15,0.29,0,*51
1499374826.54,52927,17.81,74328.3,1.29,-0.27,0.17,0,*52
1499374827.73,52928,17.81,74340.5,1.27,-0.41,-0.03,0,*4B
1499374828.9,52929,17.81,74346.5,1.27,-0.65,0.05,0,*67
1499374830.09,52930,17.81,74338.5,1.27,-0.77,-0.15,0,*70
1499374831.27,52931,17.81,74336.5,1.27,-0.53,0.09,0,*67
1499374832.44,52932,17.81,74344.3,1.27,-0.53,0.09,0,*64
1499374833.64,52933,17.81,74332.5,1.27,-0.69,0.17,0,*53
1499374834.87,52934,17.81,74320.8,1.29,-0.41,0.21,0,*55
1499374836.1,52935,17.81,74316.3,1.27,-0.27,0.29,0,*52
1499374837.29,52936,17.81,74320.5,1.27,-0.03,0.41,0,*69
1499374838.48,52937,17.81,74320.8,1.27,-0.07,0.33,0,*69
1499374839.73,52938,17.81,74322.5,1.29,-0.27,0.17,0,*5C
1499374840.98,52939,17.81,74330.5,1.29,-0.27,0.21,0,*58
1499374842.21,52940,17.81,74332.5,1.29,-0.19,0.29,0,*53
1499374843.43,52941,17.81,74332.0,1.29,-0.15,0.33,0,*55
1499374844.63,52942,17.81,74340.0,1.31,-0.41,0.21,0,*5D
1499374845.83,52943,17.81,74342.5,1.31,-0.61,0.21,0,*5E
1499374847.0,52944,17.81,74340.8,1.31,-0.49,0.01,0,*61
1499374848.18,52945,17.81,74330.3,1.31,-0.41,0.01,0,*68
1499374849.38,52946,17.81,74330.0,1.29,-0.57,-0.03,0,*4A
1499374850.59,52947,17.81,74334.5,1.29,-0.57,-0.03,0,*4B
1499374851.8,52948,17.81,74336.3,1.29,-0.65,-0.15,0,*72
1499374853.04,52949,17.81,74340.5,1.29,-1.05,-0.41,0,*45
1499374854.26,52950,17.81,74342.3,1.29,-1.17,-0.57,0,*49
1499374855.47,52951,17.81,74340.0,1.29,-1.29,-0.65,0,*44
1499374856.71,52952,17.81,74342.0,1.29,-1.39,-0.57,0,*47
1499374857.92,52953,17.81,74342.3,1.29,-1.63,-0.69,0,*44
1499374859.1,52954,17.81,74340.8,1.27,-1.63,-0.81,0,*4B
1499374860.31,52955,17.81,74342.0,1.27,-1.79,-0.89,0,*49
1499374861.52,52956,17.81,74340.3,1.27,-1.79,-0.89,0,*4A
1499374862.75,52957,17.81,74336.8,1.27,-1.87,-0.89,0,*4A
1499374863.94,52958,17.81,74336.3,1.27,-1.79,-0.81,0,*4C
1499374865.12,52959,17.81,74340.5,1.27,-1.67,-0.81,0,*42
1499374866.33,52960,17.81,74340.5,1.27,-1.43,-0.69,0,*48
1499374867.57,52961,17.81,74340.3,1.25,-1.47,-0.57,0,*42
1499374868.79,52962,17.81,74342.0,1.25,-1.25,-0.49,0,*4A
1499374870.02,52963,17.81,74346.8,1.25,-1.13,-0.37,0,*47
1499374871.24,52964,17.81,74344.5,1.23,-1.09,-0.29,0,*42
1499374872.49,52965,17.81,74344.0,1.25,-0.85,-0.23,0,*7A
1499374873.71,52966,17.81,74346.5,1.25,-0.93,-0.29,0,*74
1499374874.94,52967,17.81,74340.5,1.25,-0.97,-0.29,0,*71
1499374876.17,52968,17.81,74342.5,1.25,-0.97,-0.29,0,*7E
1499374877.41,52969,17.81,74344.0,1.25,-1.09,-0.37,0,*46
1499374878.62,52970,17.81,74346.3,1.25,-1.25,-0.37,0,*40
1499374879.86,52971,17.81,74344.3,1.25,-1.13,-0.37,0,*44
1499374881.08,52972,17.81,74348.5,1.25,-1.21,-0.45,0,*43
1499374882.29,52973,17.81,74350.3,1.25,-1.33,-0.45,0,*41
1499374883.51,52974,17.81,74342.8,1.23,-1.05,-0.29,0,*4F
1499374884.74,52975,17.81,74346.0,1.23,-0.93,-0.23,0,*7A
1499374885.92,52976,17.81,74340.0,1.23,-0.69,0.01,0,*61
1499374887.12,52977,17.81,74344.0,1.25,-0.69,0.05,0,*62
1499374888.34,52978,17.81,74346.5,1.25,-0.45,0.29,0,*5D
1499374889.55,52979,17.81,74338.0,1.23,-0.11,0.41,0,*55
1499374890.77,52980,17.81,74334.3,1.25,-0.07,0.47,0,*64
1499374892.01,52981,17.81,74330.5,1.25,0.13,0.55,0,*7E
1499374893.24,52982,17.81,74328.5,1.25,0.37,0.67,0,*7A
1499374894.46,52983,17.81,74334.5,1.27,0.51,0.71,0,*7E
1499374895.68,52984,17.81,74340.8,1.27,0.55,0.71,0,*7D
1499374896.92,52985,17.81,74338.0,1.29,0.59,0.71,0,*7E
1499374898.17,52986,17.81,74320.3,1.29,0.79,0.91,0,*71
1499374899.41,52987,17.81,74314.3,1.29,0.67,0.91,0,*7F
1499374900.65,52988,17.81,74326.5,1.29,0.55,0.67,0,*78
1499374901.89,52989,17.81,74330.0,1.29,0.33,0.55,0,*78
1499374903.12,52990,17.81,74336.8,1.29,0.17,0.41,0,*73
1499374904.31,52991,17.81,74344.5,1.31,0.01,0.33,0,*49
1499374905.5,52992,17.81,74344.0,1.31,-0.23,0.09,0,*6E
1499374906.72,52993,17.81,74342.0,1.31,-1.01,-0.11,0,*4A
1499374907.92,52994,17.81,74338.0,1.31,-1.25,-0.15,0,*4F
1499374909.13,52995,17.81,74336.8,1.31,-1.29,-0.27,0,*43
1499374910.39,52996,17.81,74336.8,1.29,-0.89,-0.27,0,*72
1499374911.6,52997,17.81,74338.3,1.29,-1.33,-0.33,0,*46
1499374912.82,52998,17.81,74334.5,1.29,-1.21,-0.33,0,*4A
1499374914.06,52999,17.81,74338.3,1.29,-1.01,-0.29,0,*42
1499374915.29,53000,17.81,74336.3,1.29,-1.05,-0.29,0,*4E
1499374916.53,53001,17.81,74336.3,1.29,-1.01,-0.33,0,*40
1499374917.75,53002,17.81,74340.3,1.29,-1.29,-0.57,0,*4B
1499374918.95,53003,17.81,74342.0,1.27,-1.79,-0.93,0,*49
1499374920.19,53004,17.81,74336.5,1.29,-2.15,-1.05,0,*77
1499374921.43,53005,17.81,74342.5,1.27,-2.07,-1.09,0,*77
1499374922.65,53006,17.81,74344.8,1.27,-2.19,-1.05,0,*77
1499374923.86,53007,17.81,74338.8,1.27,-2.15,-1.01,0,*7E
1499374925.07,53008,17.81,74340.5,1.27,-2.19,-1.05,0,*79
1499374926.31,53009,17.81,74340.8,1.25,-2.35,-1.05,0,*74
1499374927.55,53010,17.81,74344.5,1.25,-2.23,-1.05,0,*7B
1499374928.78,53011,17.81,74336.3,1.23,-1.95,-0.93,0,*4C
1499374929.96,53012,17.81,74340.8,1.23,-1.59,-0.57,0,*47
1499374931.18,53013,17.81,74340.3,1.23,-1.05,-0.29,0,*46
1499374932.37,53014,17.81,74340.0,1.23,-0.81,-0.19,0,*7F
1499374933.56,53015,17.81,74348.3,1.23,-0.73,-0.07,0,*4C
1499374934.78,53016,17.81,74354.0,1.25,-0.57,0.17,0,*53
1499374935.99,53017,17.81,74352.5,1.23,-0.37,0.25,0,*53
1499374937.23,53018,17.81,74342.5,1.25,-0.23,0.25,0,*5F
1499374938.45,53019,17.81,74338.5,1.25,-0.29,0.29,0,*58
1499374939.67,53020,17.81,74346.3,1.25,-0.49,0.29,0,*54
1499374940.89,53021,17.81,74334.5,1.25,-0.57,0.17,0,*57
1499374942.12,53022,17.81,74332.8,1.25,-0.45,0.29,0,*5A
1499374943.31,53023,17.81,74326.0,1.27,-0.19,0.41,0,*5E
1499374944.51,53024,17.81,74330.5,1.27,-0.03,0.51,0,*63
1499374945.73,53025,17.81,74334.0,1.27,0.21,0.55,0,*7B
1499374946.97,53026,17.81,74328.3,1.29,0.33,0.55,0,*75
1499374948.22,53027,17.81,74326.3,1.29,0.41,0.59,0,*7D
1499374949.46,53028,17.81,74322.3,1.29,0.51,0.59,0,*73
1499374950.7,53029,17.81,74330.5,1.29,0.51,0.67,0,*7F
1499374951.92,53030,17.81,74326.0,1.31,0.47,0.63,0,*7D
1499374953.1,53031,17.81,74316.3,1.31,0.43,0.63,0,*78
1499374954.32,53032,17.81,74326.8,1.31,0.33,0.55,0,*79
1499374955.53,53033,17.81,74342.8,1.33,0.13,0.43,0,*7F
1499374956.75,53034,17.81,74330.0,1.31,0.13,0.47,0,*7E
1499374957.95,53035,17.81,74332.8,1.31,-0.11,0.25,0,*54
1499374959.15,53036,17.81,74342.0,1.31,-0.37,0.25,0,*53
1499374960.35,53037,17.81,74332.8,1.31,-0.41,0.33,0,*54
1499374961.54,53038,17.81,74320.3,1.31,0.01,0.55,0,*42
1499374962.73,53039,17.81,74302.8,1.31,0.09,0.55,0,*4B
1499374963.95,53040,17.81,74302.0,1.31,0.25,0.55,0,*7B
1499374965.19,53041,17.81,74320.3,1.33,0.25,0.59,0,*74
1499374966.43,53042,17.81,74326.0,1.33,0.13,0.47,0,*7D
1499374967.64,53043,17.81,74322.5,1.33,0.09,0.33,0,*44
1499374968.83,53044,17.81,74330.5,1.35,-0.07,0.17,0,*60
1499374970.01,53045,17.81,74332.8,1.35,-0.45,-0.07,0,*4B
1499374971.18,53046,17.81,74336.0,1.35,-0.61,-0.07,0,*4E
1499374972.41,53047,17.81,74340.0,1.35,-1.01,-0.27,0,*4A
1499374973.62,53048,17.81,74336.3,1.31,-1.47,-0.53,0,*40
1499374974.86,53049,17.81,74336.0,1.33,-1.47,-0.49,0,*48
1499374976.04,53050,17.81,74338.5,1.31,-1.59,-0.61,0,*47
1499374977.24,53051,17.81,74332.3,1.33,-1.51,-0.65,0,*48
1499374978.46,53052,17.81,74332.0,1.33,-1.17,-0.49,0,*47
1499374979.67,53053,17.81,74330.5,1.31,-1.39,-0.61,0,*42
1499374980.85,53054,17.81,74328.0,1.31,-1.59,-0.65,0,*47
1499374982.04,53055,17.81,74332.0,1.31,-1.59,-0.77,0,*45
1499374983.22,53056,17.81,74336.5,1.31,-1.63,-0.65,0,*4C
1499374984.42,53057,17.81,74334.5,1.29,-1.51,-0.57,0,*44
1499374985.65,53058,17.81,74338.5,1.29,-1.21,-0.41,0,*4B
1499374986.91,53059,17.81,74340.3,1.29,-1.05,-0.27,0,*4C
1499374988.14,53060,17.81,74346.5,1.29,-0.93,-0.19,0,*75
1499374989.35,53061,17.81,74344.3,1.27,-0.89,-0.19,0,*71
1499374990.55,53062,17.81,74340.0,1.29,-0.69,0.05,0,*62
1499374991.77,53063,17.81,74326.5,1.29,-0.29,0.29,0,*59
1499374992.99,53064,17.81,74316.3,1.29,-0.33,0.17,0,*58
1499374994.19,53065,17.81,74318.8,1.29,-0.45,0.09,0,*67
1499374995.39,53066,17.81,74320.8,1.29,-0.57,-0.03,0,*40
1499374996.6,53067,17.81,74324.8,1.29,-0.65,-0.07,0,*44
1499374997.81,53068,17.81,74318.8,1.29,-0.77,-0.15,0,*7B
1499374999.06,53069,17.75,74318.0,1.29,-0.93,-0.27,0,*71
1499375000.31,53070,17.81,74334.8,1.29,-0.93,-0.23,0,*7D
1499375001.54,53071,17.81,74334.5,1.29,-0.93,-0.19,0,*75
1499375002.74,53072,17.81,74338.5,1.31,-0.89,-0.03,0,*4F
1499375003.94,53073,17.81,74332.8,1.31,-0.61,0.13,0,*54
1499375005.16,53074,17.81,74334.8,1.31,-0.23,0.33,0,*57
1499375006.36,53075,17.81,74340.3,1.31,-0.15,0.37,0,*57
1499375007.56,53076,17.81,74334.5,1.31,-0.11,0.37,0,*50
1499375008.79,53077,17.81,74332.5,1.31,-0.27,0.21,0,*53
1499375010.01,53078,17.81,74322.5,1.33,-0.15,0.25,0,*5B
1499375011.2,53079,17.81,74318.3,1.31,-0.29,0.13,0,*52
1499375012.41,53080,17.81,74338.0,1.31,-0.49,0.21,0,*53
1499375013.58,53081,17.81,74332.5,1.31,-0.29,0.09,0,*6E
1499375014.78,53082,17.81,74324.5,1.31,-0.27,0.09,0,*63
1499375015.95,53083,17.81,74322.8,1.31,-0.53,0.01,0,*69
1499375017.16,53084,17.81,74332.8,1.33,-0.61,-0.11,0,*71
1499375018.36,53085,17.81,74336.0,1.33,-0.77,-0.03,0,*44
1499375019.56,53086,17.81,74318.0,1.33,-0.77,-0.03,0,*47
1499375020.76,53087,17.81,74320.0,1.33,-0.65,0.09,0,*62
1499375021.94,53088,17.81,74338.0,1.31,-0.53,0.09,0,*6A
1499375023.13,53089,17.81,74332.5,1.31,-0.37,0.13,0,*52
1499375024.31,53090,17.81,74330.0,1.31,-0.53,0.01,0,*6B
1499375025.48,53091,17.75,74328.3,1.31,-0.53,0.01,0,*6A
1499375026.67,53092,17.81,74334.5,1.33,-0.61,0.01,0,*6A
1499375027.86,53093,17.81,74340.3,1.31,-0.65,-0.11,0,*71
1499375029.09,53094,17.81,74338.0,1.33,-0.97,-0.29,0,*72
1499375030.3,53095,17.81,74338.0,1.33,-1.17,-0.29,0,*4A
1499375031.52,53096,17.81,74342.5,1.31,-1.17,-0.27,0,*45
1499375032.73,53097,17.81,74340.5,1.31,-0.97,-0.37,0,*7C
1499375033.99,53098,17.81,74342.5,1.33,-0.97,-0.27,0,*70
1499375035.2,53099,17.81,74342.0,1.31,-0.89,-0.15,0,*7D
1499375036.39,53100,17.81,74332.0,1.31,-0.77,-0.15,0,*7D
1499375037.58,53101,17.81,74340.0,1.31,-0.73,-0.15,0,*78
1499375038.77,53102,17.81,74332.0,1.31,-0.73,-0.11,0,*7F
1499375039.99,53103,17.81,74330.5,1.31,-0.85,-0.15,0,*73
1499375041.24,53104,17.81,74330.5,1.29,-0.89,-0.27,0,*70
1499375042.49,53105,17.81,74330.8,1.29,-0.93,-0.27,0,*7A
1499375043.73,53106,17.81,74332.0,1.29,-1.05,-0.29,0,*49
1499375044.97,53107,17.81,74336.3,1.29,-1.05,-0.33,0,*43
1499375046.24,53108,17.81,74344.3,1.29,-1.05,-0.27,0,*49
1499375047.47,53109,17.81,74344.0,1.29,-0.93,-0.15,0,*77
1499375048.68,53110,17.81,74346.3,1.29,-0.81,0.05,0,*60
1499375049.88,53111,17.81,74328.3,1.29,-0.57,0.05,0,*6A
1499375051.08,53112,17.81,74310.3,1.29,-0.57,-0.03,0,*42
1499375052.25,53113,17.81,74322.3,1.31,-0.49,0.01,0,*6A
1499375053.42,53114,17.81,74322.3,1.31,-0.49,0.09,0,*65
1499375054.6,53115,17.81,74330.8,1.31,-0.41,0.09,0,*6C
1499375055.78,53116,17.81,74322.8,1.31,-0.49,0.09,0,*67
1499375056.95,53117,17.81,74316.8,1.31,-0.53,0.01,0,*65
1499375058.14,53118,17.81,74316.3,1.33,-0.61,0.01,0,*69
1499375059.33,53119,17.81,74328.3,1.31,-0.77,-0.11,0,*71
1499375060.53,53120,17.81,74332.0,1.31,-0.85,-0.03,0,*45
1499375061.72,53121,17.81,74334.0,1.31,-0.77,-0.11,0,*7A
1499375062.95,53122,17.81,74336.5,1.31,-0.85,-0.23,0,*75
1499375064.17,53123,17.81,74342.8,1.31,-1.05,-0.15,0,*48
1499375065.38,53124,17.81,74340.3,1.31,-0.85,-0.03,0,*41
1499375066.55,53125,17.81,74342.8,1.31,-0.49,0.09,0,*67
1499375067.75,53126,17.81,74338.3,1.31,-0.29,0.13,0,*59
1499375068.95,53127,17.81,74344.8,1.31,-0.41,0.13,0,*56
1499375070.15,53128,17.81,74342.8,1.31,-0.27,0.09,0,*62
1499375071.35,53129,17.81,74332.0,1.29,-0.41,-0.03,0,*4D
1499375072.58,53130,17.75,74332.0,1.29,-0.41,0.17,0,*5D
1499375073.8,53131,17.81,74330.3,1.29,-0.29,0.21,0,*57
1499375075.0,53132,17.81,74340.8,1.31,-0.15,0.37,0,*55
1499375076.2,53133,17.81,74338.8,1.31,-0.15,0.33,0,*50
1499375077.4,53134,17.81,74346.8,1.31,-0.11,0.25,0,*54
1499375078.57,53135,17.81,74336.0,1.31,-0.15,0.01,0,*67
1499375079.76,53136,17.81,74342.3,1.31,-0.53,-0.11,0,*7A
1499375080.99,53137,17.81,74332.3,1.31,-1.05,-0.11,0,*49
1499375082.17,53138,17.81,74340.0,1.31,-0.73,0.09,0,*62
1499375083.36,53139,17.81,74340.5,1.31,-0.37,0.33,0,*5A
1499375084.56,53140,17.75,74328.8,1.31,-0.15,0.33,0,*54
1499375085.78,53141,17.81,74334.0,1.31,-0.23,0.25,0,*57
1499375086.98,53142,17.81,74334.0,1.31,-0.27,0.01,0,*66
1499375088.19,53143,17.81,74334.5,1.31,-0.73,-0.23,0,*7B
1499375089.4,53144,17.81,74332.8,1.31,-1.05,-0.29,0,*46
1499375090.64,53145,17.81,74328.5,1.33,-1.25,-0.23,0,*4D
1499375091.84,53146,17.81,74332.8,1.31,-0.89,-0.03,0,*49
1499375093.01,53147,17.81,74332.5,1.31,-0.61,0.09,0,*69
1499375094.21,53148,17.81,74334.0,1.29,-0.57,0.05,0,*66
1499375095.41,53149,17.81,74334.5,1.31,-0.49,0.21,0,*57
1499375096.61,53150,17.75,74336.5,1.31,-0.29,0.25,0,*5D
1499375097.81,53151,17.81,74338.0,1.31,-0.15,0.25,0,*53
1499375099.03,53152,17.81,74336.3,1.31,-0.23,0.21,0,*51
1499375100.26,53153,17.81,74334.0,1.31,-0.27,0.21,0,*54
1499375101.46,53154,17.81,74334.5,1.31,-0.15,0.33,0,*51
1499375102.66,53155,17.75,74326.5,1.31,-0.15,0.33,0,*50
1499375103.86,53156,17.81,74322.8,1.31,-0.15,0.47,0,*50
1499375105.06,53157,17.81,74324.8,1.31,-0.03,0.55,0,*65
1499375106.28,53158,17.81,74326.8,1.31,0.13,0.55,0,*76
1499375107.52,53159,17.75,74326.8,1.33,0.21,0.55,0,*74
1499375108.76,53160,17.81,74340.5,1.33,0.33,0.55,0,*7D
1499375110.0,53161,17.81,74332.5,1.33,0.33,0.59,0,*70
1499375111.24,53162,17.81,74336.0,1.33,0.25,0.59,0,*74
1499375112.48,53163,17.81,74334.8,1.33,0.33,0.55,0,*7E
1499375113.69,53164,17.81,74330.0,1.35,0.25,0.59,0,*74
1499375114.91,53165,17.75,74334.8,1.33,0.09,0.55,0,*41
1499375116.1,53166,17.81,74330.3,1.35,0.05,0.59,0,*44
1499375117.34,53167,17.81,74328.5,1.37,0.29,0.63,0,*70
1499375118.55,53168,17.81,74320.0,1.35,0.37,0.63,0,*72
1499375119.78,53169,17.81,74320.5,1.37,0.33,0.67,0,*71
1499375121.02,53170,17.81,74332.8,1.37,0.21,0.55,0,*7B
1499375122.26,53171,17.81,74330.0,1.37,0.17,0.55,0,*7F
1499375123.48,53172,17.81,74332.8,1.37,0.05,0.55,0,*4F
1499375124.7,53173,17.81,74330.8,1.37,0.05,0.55,0,*4E
1499375125.9,53174,17.81,74332.8,1.35,-0.03,0.55,0,*60
1499375127.12,53175,17.81,74332.5,1.37,-0.03,0.55,0,*63
1499375128.32,53176,17.81,74336.3,1.37,-0.03,0.43,0,*67
1499375129.56,53177,17.81,74340.8,1.37,-0.23,0.33,0,*53
1499375130.78,53178,17.75,74342.3,1.37,-0.29,0.21,0,*55
1499375131.99,53179,17.75,74346.0,1.37,-0.41,-0.03,0,*47
1499375133.19,53180,17.75,74332.3,1.37,-0.45,0.05,0,*6E
1499375134.38,53181,17.75,74330.8,1.35,-0.45,0.25,0,*5F
1499375135.61,53182,17.75,74330.3,1.37,-0.19,0.29,0,*5B
1499375136.83,53183,17.75,74322.0,1.37,-0.15,0.41,0,*58
1499375138.04,53184,17.75,74322.5,1.37,-0.07,0.33,0,*69
1499375139.26,53185,17.75,74312.8,1.37,-0.15,0.41,0,*5E
1499375140.51,53186,17.81,74316.5,1.37,-0.23,0.33,0,*5D
1499375141.73,53187,17.75,74320.8,1.37,-0.19,0.29,0,*5E
1499375142.96,53188,17.81,74324.0,1.37,-0.23,0.09,0,*6A
1499375144.15,53189,17.81,74324.3,1.37,-0.61,-0.07,0,*4E
1499375145.34,53190,17.81,74324.8,1.35,-0.81,-0.15,0,*79
1499375146.57,53191,17.75,74330.0,1.37,-0.89,-0.19,0,*7E
1499375147.8,53192,17.81,74330.0,1.35,-0.93,-0.27,0,*79
1499375149.03,53193,17.81,74330.8,1.37,-0.93,-0.41,0,*7A
1499375150.22,53194,17.81,74334.0,1.35,-1.21,-0.45,0,*43
1499375151.46,53195,17.75,74328.3,1.37,-1.39,-0.77,0,*48
1499375152.67,53196,17.81,74334.3,1.35,-1.55,-0.85,0,*4E
1499375153.9,53197,17.81,74332.5,1.35,-1.83,-0.93,0,*43
1499375155.09,53198,17.81,74334.5,1.35,-1.59,-0.93,0,*4B
1499375156.32,53199,17.81,74336.5,1.33,-1.63,-0.89,0,*4E
1499375157.55,53200,17.81,74330.5,1.33,-1.63,-0.85,0,*41
1499375158.79,53201,17.81,74326.0,1.33,-1.71,-0.85,0,*43
1499375160.0,53202,17.75,74328.0,1.31,-1.83,-0.53,0,*44
1499375161.21,53203,17.81,74328.5,1.31,-1.25,-0.23,0,*4E
1499375162.39,53204,17.75,74324.8,1.31,-0.61,-0.15,0,*7D
1499375163.57,53205,17.81,74328.0,1.31,-0.41,-0.03,0,*49
1499375164.77,53206,17.81,74332.3,1.33,-0.53,-0.03,0,*4B
1499375165.95,53207,17.75,74322.3,1.31,-0.41,0.01,0,*64
1499375167.15,53208,17.75,74320.5,1.31,-0.27,0.01,0,*6B
1499375168.34,53209,17.81,74324.3,1.31,-0.37,-0.15,0,*73
1499375169.55,53210,17.75,74322.5,1.31,-0.97,-0.41,0,*70
1499375170.79,53211,17.75,74326.0,1.33,-1.47,-0.65,0,*49
1499375172.01,53212,17.81,74326.5,1.31,-1.39,-0.49,0,*4F
1499375173.25,53213,17.81,74324.0,1.31,-1.05,-0.27,0,*49
1499375174.45,53214,17.75,74322.5,1.31,-0.97,-0.29,0,*7A
1499375175.67,53215,17.75,74324.5,1.29,-1.17,-0.45,0,*41
1499375176.85,53216,17.81,74326.5,1.31,-1.51,-0.65,0,*4B
1499375178.07,53217,17.81,74324.3,1.31,-1.47,-0.73,0,*4A
1499375179.28,53218,17.75,74320.3,1.29,-1.33,-0.57,0,*49
1499375180.52,53219,17.75,74318.5,1.29,-1.39,-0.65,0,*43
1499375181.76,53220,17.75,74320.3,1.29,-1.39,-0.57,0,*48
1499375182.97,53221,17.75,74320.5,1.27,-1.09,-0.57,0,*44
1499375184.16,53222,17.75,74320.8,1.27,-1.29,-0.53,0,*41
1499375185.35,53223,17.81,74324.0,1.27,-1.17,-0.29,0,*40
1499375186.54,53224,17.81,74322.0,1.27,-0.81,-0.19,0,*7A
1499375187.72,53225,17.75,74322.8,1.27,-0.65,-0.19,0,*71
1499375188.91,53226,17.75,74320.8,1.27,-0.53,-0.19,0,*77
1499375190.11,53227,17.81,74324.8,1.29,-0.65,-0.07,0,*42
1499375191.3,53228,17.75,74316.3,1.27,-0.69,-0.15,0,*7C
1499375192.49,53229,17.81,74318.3,1.27,-0.65,-0.15,0,*71
1499375193.75,53230,17.75,74322.3,1.29,-1.01,-0.27,0,*45
1499375194.99,53231,17.81,74326.8,1.29,-1.01,-0.19,0,*49
1499375196.19,53232,17.75,74324.3,1.27,-0.89,-0.29,0,*76
1499375197.38,53233,17.75,74320.3,1.27,-1.29,-0.45,0,*46
1499375198.6,53234,17.75,74320.8,1.29,-1.29,-0.41,0,*4B
1499375199.86,53235,17.81,74314.5,1.29,-1.01,-0.27,0,*40
1499375201.05,53236,17.75,74316.5,1.27,-0.77,-0.19,0,*70
1499375202.25,53237,17.75,74314.3,1.29,-0.53,0.05,0,*69
1499375203.47,53238,17.81,74310.0,1.29,-0.29,0.29,0,*55
1499375204.67,53239,17.75,74314.3,1.27,-0.19,0.17,0,*54
1499375205.84,53240,17.81,74320.5,1.27,-0.29,0.09,0,*66
1499375207.05,53241,17.75,74316.8,1.29,-0.41,0.09,0,*67
1499375208.23,53242,17.81,74308.5,1.27,-0.41,0.09,0,*6A
1499375209.44,53243,17.75,74296.3,1.29,-0.33,0.17,0,*5F
1499375210.65,53244,17.81,74298.0,1.29,-0.41,0.09,0,*62
1499375211.85,53245,17.75,74314.0,1.29,-0.41,0.09,0,*63
1499375213.08,53246,17.75,74308.8,1.29,-0.41,0.21,0,*5A
1499375214.3,53247,17.81,74300.0,1.29,-0.19,0.33,0,*55
1499375215.52,53248,17.81,74316.8,1.29,-0.07,0.41,0,*60
1499375216.71,53249,17.81,74304.3,1.29,0.05,0.43,0,*4C
1499375217.93,53250,17.81,74312.3,1.29,0.09,0.51,0,*4B
1499375219.15,53251,17.81,74328.8,1.31,0.21,0.55,0,*7D
1499375220.36,53252,17.75,74314.5,1.31,0.33,0.59,0,*71
1499375221.58,53253,17.75,74318.3,1.31,0.33,0.59,0,*70
1499375222.8,53254,17.81,74324.3,1.31,0.21,0.55,0,*78
1499375224.04,53255,17.75,74326.8,1.33,0.13,0.55,0,*7A
1499375225.26,53256,17.75,74326.5,1.31,0.21,0.59,0,*76
1499375226.5,53257,17.75,74316.8,1.33,0.21,0.59,0,*75
1499375227.74,53258,17.81,74308.3,1.33,0.33,0.59,0,*79
1499375228.98,53259,17.81,74314.3,1.33,0.33,0.59,0,*78
1499375230.22,53260,17.75,74312.3,1.33,0.33,0.59,0,*72
1499375231.45,53261,17.75,74326.0,1.33,0.33,0.55,0,*7F
1499375232.69,53262,17.75,74328.8,1.33,0.33,0.47,0,*7F
1499375233.93,53263,17.75,74326.3,1.33,0.13,0.47,0,*7C
1499375235.15,53264,17.75,74328.3,1.33,-0.03,0.47,0,*67
1499375236.38,53265,17.75,74334.0,1.33,-0.15,0.37,0,*56
1499375237.57,53266,17.75,74330.0,1.35,-0.37,0.41,0,*52
1499375238.77,53267,17.75,74330.0,1.35,-0.33,0.47,0,*51
1499375239.97,53268,17.75,74334.0,1.35,-0.11,0.47,0,*5E
1499375241.17,53269,17.75,74332.8,1.35,-0.11,0.25,0,*5B
1499375242.39,53270,17.75,74332.8,1.37,-0.23,-0.03,0,*49
1499375243.6,53271,17.81,74342.3,1.35,-0.45,-0.23,0,*78
1499375244.77,53272,17.75,74338.8,1.35,-0.61,-0.37,0,*78
1499375245.99,53273,17.75,74332.5,1.35,-1.01,-0.49,0,*47
1499375247.17,53274,17.81,74342.3,1.35,-1.21,-0.57,0,*4D
1499375248.4,53275,17.75,74334.3,1.33,-1.35,-0.61,0,*4A
1499375249.6,53276,17.75,74338.5,1.33,-1.59,-0.65,0,*47
1499375250.81,53277,17.75,74336.8,1.33,-1.59,-0.53,0,*43
1499375252.02,53278,17.81,74342.0,1.33,-1.63,-0.37,0,*47
1499375253.23,53279,17.75,74336.8,1.33,-1.25,-0.29,0,*4B
1499375254.46,53280,17.75,74338.8,1.31,-0.97,-0.27,0,*79
1499375255.65,53281,17.75,74340.5,1.31,-0.65,-0.15,0,*74
1499375256.84,53282,17.75,74338.8,1.31,-0.77,-0.15,0,*74
1499375258.05,53283,17.75,74338.0,1.31,-0.89,-0.15,0,*74
1499375259.22,53284,17.75,74342.0,1.31,-0.61,0.01,0,*6D
1499375260.44,53285,17.75,74340.3,1.31,-0.23,0.13,0,*59
1499375261.64,53286,17.81,74354.0,1.31,-0.15,0.25,0,*5A
1499375262.83,53287,17.81,74354.3,1.31,-0.03,0.37,0,*6F
1499375264.05,53288,17.81,74364.0,1.31,0.13,0.59,0,*74
1499375265.27,53289,17.75,74292.3,1.31,0.21,0.59,0,*74
1499375266.49,53290,17.81,74312.3,1.31,0.25,0.59,0,*78
1499375267.73,53291,17.75,74304.3,1.33,0.21,0.59,0,*7F
1499375268.95,53292,17.75,74314.8,1.31,0.21,0.55,0,*72
1499375270.19,53293,17.81,74320.0,1.33,0.13,0.55,0,*70
1499375271.43,53294,17.75,74324.3,1.33,0.13,0.55,0,*77
1499375272.67,53295,17.81,74330.5,1.33,0.21,0.47,0,*74
1499375273.91,53296,17.81,74328.5,1.33,0.21,0.47,0,*77
1499375275.11,53297,17.75,74324.8,1.33,0.09,0.43,0,*48
1499375276.3,53298,17.75,74322.3,1.33,0.09,0.43,0,*47
1499375277.48,53299,17.75,74332.8,1.35,0.05,0.41,0,*4E
1499375278.68,53300,17.75,74336.0,1.35,-0.11,0.41,0,*57
1499375279.9,53301,17.75,74338.5,1.35,-0.27,0.41,0,*53
1499375281.12,53302,17.75,74336.0,1.37,-0.07,0.51,0,*61
1499375282.31,53303,17.75,74336.5,1.35,-0.07,0.59,0,*6A
1499375283.55,53304,17.81,74336.0,1.37,0.41,0.79,0,*72
1499375284.79,53305,17.75,74316.5,1.37,0.51,0.79,0,*72
1499375286.03,53306,17.75,74314.8,1.37,0.51,0.79,0,*71
1499375287.26,53307,17.75,74316.3,1.37,0.51,0.67,0,*7F
1499375288.47,53308,17.75,74322.8,1.37,0.43,0.67,0,*73
1499375289.69,53309,17.75,74316.0,1.37,0.21,0.43,0,*70
1499375290.91,53310,17.75,74330.8,1.37,-0.03,0.21,0,*61
1499375292.09,53311,17.75,74316.3,1.39,-0.57,-0.03,0,*42
1499375293.29,53312,17.75,74320.5,1.37,-0.69,0.05,0,*69
1499375294.51,53313,17.75,74330.0,1.43,-0.61,0.25,0,*51
1499375295.72,53314,17.75,74324.8,1.37,-0.69,-0.03,0,*44
1499375296.93,53315,17.75,74324.8,1.37,-0.57,-0.15,0,*7F
1499375298.14,53316,17.75,74316.3,1.37,-0.69,-0.15,0,*71
1499375299.35,53317,17.81,74318.8,1.37,-0.81,-0.15,0,*76
1499375300.62,53318,17.75,74322.0,1.37,-1.05,-0.23,0,*41
1499375301.85,53319,17.75,74312.0,1.35,-1.13,-0.27,0,*41
1499375303.05,53320,17.75,74318.8,1.35,-0.93,-0.19,0,*7F
1499375304.24,53321,17.75,74318.5,1.35,-0.81,-0.19,0,*7D
1499375305.43,53322,17.75,74314.5,1.35,-0.81,-0.11,0,*76
1499375306.61,53323,17.75,74318.3,1.35,-0.69,-0.11,0,*71
1499375307.8,53324,17.75,74320.3,1.35,-0.57,-0.11,0,*7B
1499375309.01,53325,17.75,74316.8,1.35,-0.73,-0.27,0,*79
1499375310.23,53326,17.75,74316.8,1.35,-0.85,-0.23,0,*77
1499375311.44,53327,17.75,74322.5,1.35,-0.81,-0.27,0,*76
1499375312.63,53328,17.75,74322.5,1.35,-1.21,-0.37,0,*43
1499375313.84,53329,17.75,74318.8,1.33,-1.63,-0.77,0,*46
1499375315.05,53330,17.75,74322.0,1.33,-1.71,-0.65,0,*4E
1499375316.26,53331,17.75,74322.0,1.33,-1.75,-0.65,0,*4B
1499375317.49,53332,17.81,74316.5,1.33,-1.01,-0.29,0,*43